Regional Weather Roundup
Issued by NWS

Home | Current Version | Previous Version | Graphics & Text | Print | Product List | Glossary On
Versions: 1 2 3 4 5 6 7 8 9 10 11 12 13 14 15 16 17 18 19 20 21 22 23 24 25 26 27 28 29 30 31 32 33 34 35 36 37 38 39 40 41 42 43 44 45 46 47 48 49 50
000
ASUS43 KMKX 270721
RWRWI

WISCONSIN REGIONAL WEATHER ROUNDUP
NATIONAL WEATHER SERVICE MILWAUKEE/SULLIVAN WI
100 AM CST THU NOV 27 2014

NOTE: "FAIR" INDICATES FEW OR NO CLOUDS BELOW 12,000 FEET WITH NO
SIGNIFICANT WEATHER AND/OR OBSTRUCTIONS TO VISIBILITY.

WIZ001-002-006>008-014>016-023>028-270800-
NORTHWEST WISCONSIN

CITY           SKY/WX    TMP DP  RH WIND       PRES   REMARKS
SUPERIOR ARPT  CLEAR      1  -5  76 N7        30.46R WCI -12
ASHLAND        CLOUDY     6   2  83 NW6       30.38R WCI  -4
HAYWARD        CLEAR      4   0  83 N3        30.35R
SIREN          CLEAR      3  -4  70 N9        30.42R WCI -11
CUMBERLAND     CLEAR      5  -4  66 N15       30.35R WCI -13
RICE LAKE      CLEAR      8   1  72 N8        30.36R WCI  -4
CHETEK         FLURRIES  10   5  79 MISG      30.35R
LADYSMITH      FLURRIES  12   7  82 NW10      30.32R WCI  -2
EAU CLAIRE     CLOUDY    15   7  70 N9        30.33R WCI   3
MENOMONIE      MOCLDY    15   7  71 NW13      30.35R WCI   1
NEW RICHMOND   CLEAR      8  -1  66 N10       30.39R WCI  -7
OSCEOLA        CLEAR      8  -2  64 N13       30.44R WCI  -8
$$

WIZ003>005-009-010-017-018-270800-
NORTH CENTRAL WISCONSIN

CITY           SKY/WX    TMP DP  RH WIND       PRES   REMARKS
MANITOWISH WTR CLOUDY    13   9  84 N7        30.23R WCI   2
ARBOR VITAE    FAIR      11   8  86 N6        30.22R WCI   2
WOODRUFF       FAIR      11   8  86 N6        30.22R WCI   2
RHINELANDER    FLURRIES  13   8  81 VRB6      30.21R WCI   4
EAGLE RIVER    FLURRIES  14   9  81 N9        30.20R WCI   1
LAND O LAKES   PTCLDY    12   8  81 N10G16    30.21R WCI  -1
PHILLIPS       LGT SNOW  12   8  84 NW7       30.25R WCI   1
TOMAHAWK       LGT SNOW  17  13  87 CALM      30.23R
MEDFORD        LGT SNOW  16  12  86 NW12      30.23R WCI   3
MERRILL        LGT SNOW  17  14  86 NW6       30.22R WCI   9
$$

WIZ029-030-035-036-043>047-270800-
CENTRAL WISCONSIN

CITY           SKY/WX    TMP DP  RH WIND       PRES   REMARKS
WAUSAU         CLOUDY    19  14  81 NW7       30.21R WCI  10
MOSINEE        CLOUDY    19  18  93 NW10      30.23R WCI   8
MARSHFIELD     LGT SNOW  19  13  77 NW14      30.24R WCI   6
STEVENS POINT  CLOUDY    19  15  82 NW6       30.23R WCI  11
WAUPACA        CLOUDY    25  20  82 NW7       30.23R WCI  17
WAUTOMA        CLOUDY    23  18  81 N7        30.24R WCI  15
WISC RAPIDS    CLOUDY    21  14  74 NW12      30.25R WCI   9
CAMP DOUGLAS   CLOUDY    23  23 100 NW10      30.26R WCI  12
$$

WIZ011>013-019>022-031-037>040-048>050-270800-
NORTHEAST WISCONSIN

CITY           SKY/WX    TMP DP  RH WIND       PRES   REMARKS
ANTIGO         CLOUDY    17  14  85 NW8       30.19R WCI   7
SHAWANO        CLOUDY    25  20  82 NW6       30.21S WCI  18
OCONTO         CLOUDY    23  21  91 NW5       30.20S WCI  17
STURGEON BAY   CLOUDY    27  19  74 N16       30.18R WCI  14
GREEN BAY      LGT SNOW  24  21  88 NW7       30.20S FOG     WCI  16
MANITOWOC      LGT SNOW  21  21 100 NW6       30.20S FOG     WCI  14
APPLETON       LGT SNOW  23  23 100 NW8       30.20S WCI  14
CLINTONVILLE   CLOUDY    25  19  80 NW8       30.21S WCI  16
OSHKOSH        LGT SNOW  22  19  89 MISG      30.21R FOG
$$

WIZ032>034-041-042-053>061-270800-
SOUTHWEST WISCONSIN

CITY           SKY/WX    TMP DP  RH WIND       PRES   REMARKS
LA CROSSE      CLOUDY    25  18  74 N7        30.31R WCI  17
SPARTA         CLOUDY    23  18  83 NW7       30.29S WCI  14
VIROQUA        CLOUDY    22  19  88 NW12      30.25S WCI  11
BOSCOBEL       CLOUDY    25  20  81 CALM      30.30R
PRAIRIE DU CHI CLOUDY    25  19  79 NW6       30.30S WCI  18
PLATTEVILLE    CLOUDY    23  21  91 NW9       30.26S WCI  13
$$

WIZ056-057-062-063-064-067-068-270800-
SOUTH CENTRAL WISCONSIN

CITY           SKY/WX    TMP DP  RH WIND       PRES   REMARKS
REEDSBURG      CLOUDY    22  20  91 NW3       30.25R
BARABOO/DELLS  CLOUDY    22  21  96 N7        30.24R WCI  14
LONE ROCK      CLOUDY    24  18  77 SW6       30.27R WCI  17
MINERAL POINT  CLOUDY    25  21  86 NW5       30.24R WCI  19
MADISON        LGT SNOW  20  17  88 NW3       30.24R FOG
MIDDLETON      CLOUDY    21  19  93 W6        30.24S WCI  14
WATERTOWN      LGT SNOW  17  16  98 W5        30.21S WCI  10
MONROE         CLOUDY    21  19  93 NW9       30.22S FOG     WCI  11
JANESVILLE     CLOUDY    16  14  93 CALM      30.23S FOG
$$

WIZ051-052-058>065-066-070>072-270800-
SOUTHEAST WISCONSIN

CITY           SKY/WX    TMP DP  RH WIND       PRES   REMARKS
MILWAUKEE      MOCLDY    22  16  78 NW9       30.19S WCI  12
WAUKESHA       PTCLDY    18  18 100 NW8       30.20S FOG     WCI   7
MILWAUKEE/TIMM CLOUDY    21  18  86 NW6       30.21R WCI  14
RACINE         PTCLDY    21  15  78 NW8       30.21R WCI  11
BURLINGTON     PTCLDY    17  15  92 NW8       30.20S WCI   6
KENOSHA        PTCLDY    20  15  81 NW8       30.19R WCI  10
FOND DU LAC    LGT SNOW  23  19  85 NW10      30.21S FOG     WCI  12
SHEBOYGAN      LGT SNOW  21  18  88 NW7       30.20R FOG     WCI  12
WEST BEND      LGT SNOW  21  19  93 NW6       30.19F WCI  14
JUNEAU         LGT SNOW  19  18  94 W3        30.22S VSB 1
$$

LSZ147-162-270800-
LAKE SUPERIOR

STATION/POSITION TIME  TEMP    WIND        PRES    WAVE
                       AIR SEA DIR/SP/G            HT/PER
                 (UTC) (F)     (DEG/KT/KT) (MB)    (FT/S)
DEVILS ISLAND    0700    9     340/ 17/ 23 1030.8R
PORT WING        0600   10     340/ 12/ 16 1029.5R
SAXON HARBOR     0600   17     330/ 16/ 19 1027.1R
$$

LMZ867-665-643>646-270800-
LAKE MICHIGAN

STATION/POSITION TIME  TEMP    WIND        PRES    WAVE
                       AIR SEA DIR/SP/G            HT/PER
                 (UTC) (F)     (DEG/KT/KT) (MB)    (FT/S)
CHAMBERS ISLAND  0600   27     330/ 16/ 20 1022.0R
N MID LAKE BUOY  0650   28 42  320/ 12/ 14 1022.0R   1/ 3
NORTHPORT PIER   0704   29     350/ 19/ 25 1021.7S
SISTER BAY       0528          350/ 13/ 16   N/A
KEWAUNEE LAKESHO 0700   23     300/  4/  6 1021.2R
SHEBOYGAN LAKESH 0700   22 35  290/  9/ 11 1023.8R
PORT WASHINGTON  0600   21     300/  9/ 13 1023.4R
MILWAUKEE LAKESH 0700   23     300/  7/ 10   N/A
S MID LAKE BUOY  0650   32 42  320/ 17/ 21 1021.9R   5/ 5
KENOSHA   LAKESH 0700   22     310/ 12/ 16 1022.4R
$$

TC  - TEMPERATURE IN CELSIUS
VSB - VISIBILITY IN STATUTE MILES
WCI - WIND CHILL INDEX
HX  - HEAT INDEX




USA.gov is the U.S. government's official web portal to all federal, state and local government web resources and services.